User: anonymous
Location: Saddleback Butte
(34.6776°N, 117.8050°W)
Time: 14:25:11
(UTC-07:00)
Language:

Cosmos 1862 Rocket - Orbit

View from above orbital plane
View from above orbital plane
View from above satellite
View from above satellite

Ground track
Ground track

The orbit data is extracted from the following two-line orbital elements,

1 18153U 87055B   14113.41014999  .00000673  00000-0  80583-4 0  3145
2 18153 082.4985 104.5214 0020212 272.2622 250.9369 14.82578531447815
Epoch (UTC): 23 April 2014 09:50:36
Eccentricity: 0.0020212
inclination: 82.4985°
perigee height: 607 km
apogee height: 635 km
right ascension of ascending node: 104.5214°
argument of perigee: 272.2622°
revolutions per day: 14.82578531
mean anomaly at epoch: 250.9369°
orbit number at epoch: 44781

The dashed part of the orbit path shows where the satellite is in the earth's shadow,  

DLR